Location: Spondin
(51.8528°N, 111.6118°W)
Time: 17:26:34
(UTC+00:00)

Vanguard 2 Rocket - Pass Details

Date: 01 June 2022
Orbit: 553 x 3323 km, 32.9° (Epoch: 02 July)

Event Time Altitude Azimuth Distance (km) Brightness Sun altitude
Rises 23:19:11 0° 266° (W) 7,274 12.5 36.4°
Reaches altitude 10° 23:25:14 10° 258° (WSW) 6,087 12.5 35.5°
Maximum altitude 23:39:18 29° 208° (SSW) 3,902 10.9 33.4°
Drops below altitude 10° 23:49:24 10° 155° (SSE) 4,307 10.2 31.8°
Sets 23:52:49 0° 144° (SE) 4,921 10.4 31.3°
